Simultaneous Nadir Overpasses (SNOs) Predictions

Prediction of SNOs between AQUA and GOES-15 Satellite Orbit:

Table of predicted SNOs for the next 14.0 days since TLE Epoch: 6/16/2022
Index Date Time (AQUA) AQUA Lat,Lon GOES-15 Lat,Lon Distance(km) Time Diff (sec)
1 06/16/2022 10:01:09 -0.61,-125.72 -0.05,-128.37 301.38 80
2 06/16/2022 22:22:28 -0.45,-130.89 0.07,-128.37 286.40 80
3 06/18/2022 22:09:54 0.18,-127.83 0.07,-128.40 64.09 80
4 06/20/2022 21:57:20 0.83,-124.78 0.06,-128.43 414.88 80
5 06/21/2022 10:18:30 0.25,-129.91 -0.08,-128.44 167.33 80
6 06/23/2022 10:05:56 -0.42,-126.86 -0.08,-128.47 183.22 80
7 06/23/2022 22:27:15 -0.62,-132.03 0.11,-128.46 405.37 80
8 06/25/2022 22:14:40 0.01,-128.97 0.11,-128.48 55.23 80
9 06/27/2022 22:02:05 0.67,-125.91 0.11,-128.49 294.33 80
10 06/28/2022 10:23:15 0.39,-131.04 -0.14,-128.51 287.49 80
